Simultaneous Nadir Overpasses (SNOs) Predictions

Prediction of SNOs between METOP-B and TERRA Satellite Orbit:

Table of predicted SNOs for the next 14.0 days since TLE Epoch: 6/11/2016
Index Date (METOP-B) Time (METOP-B) Lat,Lon (METOP-B) SZA (METOP-B ) Date (TERRA) Time (TERRA) Lat,Lon (TERRA) SZA (TERRA ) Distance(km) Time Diff (sec)
1 06/12/2016 03:05:16 -81.27, 0.59 118.99 06/12/2016 03:05:24 -81.28, 0.58 118.98 0.62 8
2 06/12/2016 03:55:56 81.28, 168.34 61.07 06/12/2016 03:54:50 81.29, 168.34 61.04 0.69 66
3 06/14/2016 21:49:06 81.22,-103.24 60.49 06/14/2016 21:50:20 81.13,-103.18 60.47 10.61 74
4 06/14/2016 22:39:39 -81.27, 67.03 119.14 06/14/2016 22:39:40 -81.28, 67.00 119.14 0.68 1
5 06/14/2016 23:30:19 81.28,-125.23 60.91 06/14/2016 23:29:06 81.28,-125.26 60.87 0.61 73
6 06/17/2016 17:23:22 81.27, -34.12 60.73 06/17/2016 17:24:29 81.28, -34.25 60.75 2.26 67
7 06/17/2016 18:14:02 -81.27, 133.45 119.25 06/17/2016 18:13:56 -81.27, 133.36 119.26 1.52 6
8 06/20/2016 12:57:45 81.26, 31.88 60.62 06/20/2016 12:58:44 81.27, 32.02 60.67 2.36 59
9 06/20/2016 13:48:25 -81.27,-160.54 119.35 06/20/2016 13:48:11 -81.27,-160.35 119.34 3.24 14
10 06/23/2016 08:32:07 81.27, 98.63 60.67 06/23/2016 08:32:59 81.27, 98.59 60.69 0.82 52




NCC Satellite Simultaneous Nadir Overpasses (SNOs) Prediction Service
